Regional Weather Roundup
Issued by NWS

Home | Current Version | Previous Version | Graphics & Text | Print | Product List | Glossary On
Versions: 1 2 3 4 5 6 7 8 9 10 11 12 13 14 15 16 17 18 19 20 21 22 23 24 25 26 27 28 29 30 31 32 33 34 35 36 37 38 39 40 41 42 43 44 45 46 47 48 49 50
000
ASUS43 KLOT 291958
RWRIL

ILLINOIS REGIONAL WEATHER ROUNDUP
NATIONAL WEATHER SERVICE CHICAGO/ROMEOVILLE IL
300 PM CDT FRI AUG 29 2014

NOTE: "FAIR" INDICATES FEW OR NO CLOUDS BELOW 12,000 FEET WITH NO
SIGNIFICANT WEATHER AND/OR OBSTRUCTIONS TO VISIBILITY.

* THESE STATIONS ARE NOT UNDER NWS QUALITY CONTROL. THEY ALSO MAY NOT
  REPORT WEATHER SUCH AS PRECIPITATION OR FOG.

ILZ001-002-007-009-015-016-024-292100-
NORTHWEST ILLINOIS

CITY           SKY/WX    TMP DP  RH WIND       PRES   REMARKS
MOLINE         SUNNY     87  72  60 S12       29.84F HX  93
$$

ILZ003-004-008-010-011-017-018-292100-
NORTH CENTRAL ILLINOIS

CITY           SKY/WX    TMP DP  RH WIND       PRES   REMARKS
ROCKFORD       NOT AVBL
$$

ILZ005-006-012>014-019>023-292100-
NORTHEAST ILLINOIS

CITY           SKY/WX    TMP DP  RH WIND       PRES   REMARKS
CHICAGO-OHARE  CLOUDY    85  70  60 SE13      29.90F HX  89
CHICAGO-MIDWAY PTSUNNY   86  73  65 S10       29.91F HX  93
AURORA         MOSUNNY   85  73  67 SE12      29.91F HX  91
WAUKEGAN       PTSUNNY   81  72  74 SE14      29.90F HX  85
DUPAGE AIRPORT PTSUNNY   86  73  65 S13G18    29.90F HX  93
WHEELING       PTSUNNY   85  71  63 S8        29.92F HX  90
NORTHERLY ISL    N/A     85  69  58 S8          N/A  HX  89
$$

LMZ740>746-292100-
SOUTHERN LAKE MICHIGAN

STATION/POSITION SKY/WX   TEMP    WIND        PRES    VSBY  WAVE
                          AIR SEA DIR/SP/G                  HT/PER
                          (F)     (DEG/KT/KT) (MB)    (MI)  (FT/S)
SOUTHERN BUOY              70 69  150/ 14/ 16 1014.3F         3/ 5
WAUKEGAN HARBOR            76     130/ 16/ 17   N/A
HARRISON CRIB              78     160/ 13/ 16   N/A
BURNHAM HARBOR             83     190/ 12/ 13   N/A
CALUMET HARBOR             83     160/  9/ 14 1012.5F
MICHIGAN CITY              76     130/ 12/ 18   N/A
MICHIGAN CITY 6N           75 71  160/  8/ 12   N/A           1/ 2
ST. JOSEPH                 74 71  160/ 12/ 16   N/A           1/ 3
$$

ILZ025>027-034>036-040-047-049-050-058-095>099-292100-
WEST-CENTRAL ILLINOIS

CITY           SKY/WX    TMP DP  RH WIND       PRES   REMARKS
$$

ILZ028>032-037-038-041>044-048-051>054-059>061-292100-
CENTRAL ILLINOIS

CITY           SKY/WX    TMP DP  RH WIND       PRES   REMARKS
PEORIA         NOT AVBL
SPRINGFIELD    MOSUNNY   86  72  62 SE9       29.88F HX  92
TAYLORVILLE    NOT AVBL
$$

ILZ033-039-045-046-055>057-062-063-292100-
EAST-CENTRAL ILLINOIS

CITY           SKY/WX    TMP DP  RH WIND       PRES   REMARKS
CHAMPAIGN      MOSUNNY   86  74  67 S10       29.93F HX  94
MATTOON        MOSUNNY   87  72  60 S8        29.92F HX  93
$$

ILZ079-100>102-292100-
SOUTHWEST ILLINOIS

CITY           SKY/WX    TMP DP  RH WIND       PRES   REMARKS
ALTON          MOSUNNY   90  63  40 S12G18    29.89F HX  90
CAHOKIA*       SUNNY     91  65  41 S13       29.87F HX  93
$$

ILZ064>066-069>071-074>076-080>082-084>086-088>090-092>094-292100-
SOUTH-CENTRAL ILLINOIS

CITY           SKY/WX    TMP DP  RH WIND       PRES   REMARKS
CARBONDALE     MOSUNNY   88  66  48 S12       29.92F HX  90
MARION         MOSUNNY   90  68  48 S12       29.94F HX  93
$$

ILZ067-068-072-073-078-083-087-091-292100-
SOUTHEAST ILLINOIS

CITY           SKY/WX    TMP DP  RH WIND       PRES   REMARKS
LAWRENCEVILLE  PTSUNNY   87  73  62 S7        29.93F HX  94
$$

ABBREVIATIONS USED IN REMARKS
   TC - TEMPERATURE IN CELSIUS
  WCI - WIND CHILL INDEX
   HX - HEAT INDEX
  VSB - VISIBILITY
$$




USA.gov is the U.S. government's official web portal to all federal, state and local government web resources and services.